Date String (YYYY-MM-DD hh:mm:ss) UTC,Instrument flags,absolute air pressure of the measurement (hPa),sample flow rate (lpm),inlet stack bypass flow (lpm),air temperature of the measurement (°C),ambient temperature measured by the external sensor (°C),aerosol sample conditioner tube jacket temperature (°C),OPC LED temperature (°C),internal box temperature (°C),relative humidity of the measurement (%),span deviation,mass concentration of particles derived from Lorenz-Mie calculation of OPC scattering (μg/m³),mass concentration of particles derived from Lorenz-Mie calculation of OPC scattering (μg/m³),mass concentration of particles derived from Lorenz-Mie calculation of OPC scattering (μg/m³)
DateTimeUTC,F1_M11,P_M11,Q1_M11,Q2_M11,T1_M11,T2_M11,T3_M11,T4_M11,T5_M11,U1_M11,ZSPAN_M11,X0_M11,X2_M11,X1_M11
2024-03-22 05:00:00,SystemResetWarning,0827.4,5.00,000.00,023.9,023.1,000.0,032.5,025.8,14.7,0000.0,0007.33,0001.99,0001.16
2024-03-22 05:01:00,SystemResetWarning,0827.3,5.00,000.00,023.9,023.1,000.0,032.5,025.8,14.6,0000.0,0006.98,0001.95,0001.17
2024-03-22 05:02:00,SystemResetWarning,0827.3,5.01,000.00,023.9,023.1,000.0,032.5,025.8,14.9,0000.0,0006.86,0001.94,0001.17
2024-03-22 05:03:00,SystemResetWarning,0827.3,5.00,000.00,023.9,023.1,000.0,032.5,025.9,15.3,0000.0,0006.86,0001.93,0001.16
2024-03-22 05:04:00,SystemResetWarning,0827.2,5.01,000.00,023.9,023.1,000.0,032.5,025.9,15.5,0000.0,0006.00,0001.85,0001.17
2024-03-22 05:05:00,SystemResetWarning,0827.2,5.01,000.00,023.9,023.1,000.0,032.5,025.9,15.5,0000.0,0005.21,0001.90,0001.18
2024-03-22 05:06:00,SystemResetWarning,0827.2,4.99,000.00,023.9,023.1,000.0,032.5,025.9,15.3,0000.0,0005.04,0001.97,0001.19
2024-03-22 05:07:00,SystemResetWarning,0827.1,4.98,000.00,023.9,023.1,000.0,032.5,025.9,14.8,0000.0,0004.76,0001.99,0001.17
2024-03-22 05:08:00,SystemResetWarning,0827.2,5.00,000.00,024.0,023.1,000.0,032.5,025.9,14.8,0000.0,0003.63,0001.95,0001.16
2024-03-22 05:09:00,SystemResetWarning,0827.2,5.01,000.00,024.0,023.2,000.0,032.5,025.9,15.3,0000.0,0003.70,0001.99,0001.16
2024-03-22 05:10:00,SystemResetWarning,0827.2,5.01,000.00,024.0,023.2,000.0,032.5,025.9,14.5,0000.0,0003.85,0002.02,0001.16
2024-03-22 05:11:00,SystemResetWarning,0827.2,4.99,000.00,024.0,023.2,000.0,032.6,025.9,14.4,0000.0,0003.89,0002.04,0001.17
2024-03-22 05:12:00,SystemResetWarning,0827.3,5.00,000.00,024.0,023.2,000.0,032.6,025.9,14.2,0000.0,0003.89,0002.04,0001.17
2024-03-22 05:13:00,SystemResetWarning,0827.3,5.01,000.00,024.0,023.2,000.0,032.6,025.9,14.5,0000.0,0004.02,0002.08,0001.17
2024-03-22 05:14:00,SystemResetWarning,0827.3,5.00,000.00,024.0,023.2,000.0,032.6,025.9,14.5,0000.0,0003.94,0002.07,0001.18
2024-03-22 05:15:00,SystemResetWarning,0827.3,4.98,000.00,024.0,023.2,000.0,032.6,025.9,14.1,0000.0,0003.96,0002.10,0001.18
2024-03-22 05:16:00,SystemResetWarning,0827.4,5.00,000.00,024.0,023.2,000.0,032.6,025.9,14.1,0000.0,0005.21,0002.07,0001.16
2024-03-22 05:17:00,SystemResetWarning,0827.4,5.01,000.00,024.0,023.2,000.0,032.6,025.9,14.1,0000.0,0005.25,0001.98,0001.16
2024-03-22 05:18:00,SystemResetWarning,0827.4,5.01,000.00,024.0,023.2,000.0,032.6,025.9,14.2,0000.0,0005.09,0001.92,0001.16
2024-03-22 05:19:00,SystemResetWarning,0827.4,5.01,000.00,024.0,023.2,000.0,032.6,025.9,14.0,0000.0,0005.08,0001.93,0001.16
2024-03-22 05:20:00,SystemResetWarning,0827.4,5.01,000.00,024.0,023.2,000.0,032.5,025.9,14.2,0000.0,0005.02,0001.89,0001.15
2024-03-22 05:21:00,SystemResetWarning,0827.4,5.00,000.00,024.0,023.2,000.0,032.5,025.9,14.2,0000.0,0004.85,0001.85,0001.15
2024-03-22 05:22:00,SystemResetWarning,0827.4,5.00,000.00,024.0,023.2,000.0,032.5,025.9,14.4,0000.0,0004.73,0001.83,0001.14
2024-03-22 05:23:00,SystemResetWarning,0827.4,5.00,000.00,024.0,023.2,000.0,032.6,025.9,14.4,0000.0,0004.79,0001.84,0001.14
2024-03-22 05:24:00,SystemResetWarning,0827.4,5.00,000.00,024.0,023.2,000.0,032.6,025.9,14.3,0000.0,0004.87,0001.84,0001.14
2024-03-22 05:25:00,SystemResetWarning,0827.4,5.00,000.00,024.0,023.2,000.0,032.6,025.9,14.1,0000.0,0005.81,0001.82,0001.14
2024-03-22 05:26:00,SystemResetWarning,0827.4,5.00,000.00,024.0,023.2,000.0,032.6,025.9,13.8,0000.0,0005.90,0001.81,0001.13
2024-03-22 05:27:00,SystemResetWarning,0827.6,5.00,000.00,024.0,023.2,000.0,032.6,025.9,13.8,0000.0,0004.84,0001.80,0001.15
2024-03-22 05:28:00,SystemResetWarning,0827.6,5.00,000.00,024.0,023.2,000.0,032.6,025.9,13.8,0000.0,0004.28,0001.80,0001.15
2024-03-22 05:29:00,SystemResetWarning,0827.6,5.00,000.00,024.0,023.2,000.0,032.6,025.9,13.7,0000.0,0004.30,0001.81,0001.15
2024-03-22 05:30:00,SystemResetWarning,0827.6,5.00,000.00,024.0,023.2,000.0,032.6,025.9,13.6,0000.0,0004.43,0001.81,0001.15
2024-03-22 05:31:00,SystemResetWarning,0827.7,5.00,000.00,024.0,023.2,000.0,032.6,025.9,13.5,0000.0,0004.37,0001.80,0001.16
2024-03-22 05:32:00,SystemResetWarning,0827.7,5.00,000.00,024.0,023.2,000.0,032.6,025.9,13.4,0000.0,0004.39,0001.79,0001.15
2024-03-22 05:33:00,SystemResetWarning,0827.7,5.00,000.00,024.0,023.2,000.0,032.6,025.9,13.3,0000.0,0004.42,0001.76,0001.13
2024-03-22 05:34:00,SystemResetWarning,0827.7,5.00,000.00,024.0,023.2,000.0,032.6,025.9,13.2,0000.0,0004.57,0001.82,0001.14
2024-03-22 05:35:00,SystemResetWarning,0827.7,5.00,000.00,024.0,023.2,000.0,032.6,025.9,13.2,0000.0,0004.53,0001.82,0001.14
2024-03-22 05:36:00,SystemResetWarning,0827.7,5.00,000.00,024.0,023.2,000.0,032.6,025.9,13.3,0000.0,0003.61,0001.82,0001.12
2024-03-22 05:37:00,SystemResetWarning,0827.7,4.99,000.00,024.0,023.2,000.0,032.6,025.9,13.2,0000.0,0003.45,0001.84,0001.13
2024-03-22 05:38:00,SystemResetWarning,0827.7,5.00,000.00,024.0,023.2,000.0,032.6,025.9,13.0,0000.0,0004.02,0001.90,0001.13
2024-03-22 05:39:00,SystemResetWarning,0827.7,5.00,000.00,024.0,023.2,000.0,032.6,025.9,12.9,0000.0,0004.95,0001.91,0001.13
2024-03-22 05:40:00,SystemResetWarning,0827.8,5.00,000.00,024.0,023.2,000.0,032.6,025.9,13.0,0000.0,0005.51,0001.97,0001.14
2024-03-22 05:41:00,SystemResetWarning,0827.8,5.01,000.00,024.0,023.2,000.0,032.6,025.9,13.0,0000.0,0005.38,0001.95,0001.14
2024-03-22 05:42:00,SystemResetWarning,0827.8,5.00,000.00,024.0,023.2,000.0,032.6,025.9,13.1,0000.0,0005.44,0001.97,0001.14
2024-03-22 05:43:00,SystemResetWarning,0827.8,5.00,000.00,024.0,023.2,000.0,032.6,025.9,13.2,0000.0,0005.62,0002.00,0001.16
2024-03-22 05:44:00,SystemResetWarning,0827.9,5.00,000.00,024.0,023.2,000.0,032.6,025.9,13.2,0000.0,0005.69,0002.07,0001.18
2024-03-22 05:45:00,SystemResetWarning,0828.1,5.00,000.00,024.0,023.2,000.0,032.6,025.9,13.1,0000.0,0005.53,0002.02,0001.19
2024-03-22 05:46:00,SystemResetWarning,0828.1,5.00,000.00,024.0,023.2,000.0,032.6,025.9,13.2,0000.0,0005.50,0001.97,0001.19
2024-03-22 05:47:00,SystemResetWarning,0828.1,5.00,000.00,024.0,023.2,000.0,032.6,025.9,13.3,0000.0,0005.59,0001.98,0001.21
2024-03-22 05:48:00,SystemResetWarning,0828.2,5.00,000.00,024.0,023.2,000.0,032.6,025.9,13.6,0000.0,0005.80,0002.03,0001.22
2024-03-22 05:49:00,SystemResetWarning,0828.2,5.00,000.00,024.0,023.2,000.0,032.6,025.9,14.3,0000.0,0005.35,0001.96,0001.21
2024-03-22 05:50:00,SystemResetWarning,0828.2,5.00,000.00,024.0,023.2,000.0,032.6,025.9,14.6,0000.0,0004.50,0001.92,0001.21
2024-03-22 05:51:00,SystemResetWarning,0828.3,5.00,000.00,024.0,023.1,000.0,032.6,025.9,14.7,0000.0,0004.07,0001.89,0001.21
2024-03-22 05:52:00,SystemResetWarning,0828.2,5.00,000.00,024.0,023.1,000.0,032.6,025.9,14.9,0000.0,0004.10,0001.91,0001.22
2024-03-22 05:53:00,SystemResetWarning,0828.2,5.00,000.00,024.0,023.1,000.0,032.6,025.9,15.0,0000.0,0004.01,0001.90,0001.22
2024-03-22 05:54:00,SystemResetWarning,0828.3,4.99,000.00,024.0,023.1,000.0,032.6,025.9,15.1,0000.0,0003.74,0001.84,0001.22
2024-03-22 05:55:00,SystemResetWarning,0828.4,5.01,000.00,024.0,023.1,000.0,032.6,025.9,15.2,0000.0,0003.69,0001.79,0001.21
2024-03-22 05:56:00,SystemResetWarning,0828.4,5.00,000.00,024.0,023.1,000.0,032.6,025.9,15.4,0000.0,0003.72,0001.80,0001.21
2024-03-22 05:57:00,SystemResetWarning,0828.4,5.00,000.00,024.0,023.1,000.0,032.6,025.9,15.4,0000.0,0003.61,0001.80,0001.21
2024-03-22 05:58:00,SystemResetWarning,0828.4,5.00,000.00,024.0,023.1,000.0,032.6,025.8,15.7,0000.0,0003.54,0001.80,0001.22
2024-03-22 05:59:00,SystemResetWarning,0828.4,5.00,000.00,024.0,023.0,000.0,032.6,025.8,16.1,0000.0,0003.79,0001.75,0001.22
